Location: Austin
(30.3000°N, 97.7500°W)
Time: 23:47:40
(UTC-05:00)

Okean-O - Pass Details

Date: 06 May 2026
Orbit: 627 x 629 km, 97.9° (Epoch: 13 May)

Event Time Altitude Azimuth Distance (km) Brightness Sun altitude
Exits shadow 22:00:01 28° 58° (ENE) 1,171 3.7 -21.4°
Drops below altitude 10° 22:03:14 10° 12° (NNE) 2,006 5.5 -21.9°
Sets 22:05:38 0° 2° (N) 2,916 6.5 -22.3°
